FENGYUN 1C DEB, 30175

Orbit data source: Space-Track

FENGYUN 1C DEB, 30175 is space debris in SSO originally from a launch on Mon, 10 May 1999 UTC launched from the Taiyaun Space Center, China (TSC). Fengyun 1C debris stems from the Chinese weather satellite Fengyun-1C, which was intentionally destroyed by a Chinese anti-satellite missile in 2007. This event dramatically increased the amount of space debris, with thousands of trackable fragments posing hazards to satellites and human spaceflight. The Fengyun 1C debris cloud has become a focal point in discussions about space sustainability and the need for international regulations to prevent the creation of new debris.

Loading next visibility...
Identifier
30175, 1999-025UG
Orbit
SSO
Country
Flag of CNCN / PRC
Related business
Manufacturer
Unknown
Mission
Spacecraft
Bus & Motor
Unknown
Mass
Unknown
Launch date (UTC)
1999-05-10 (27 years ago)
Launch vehicle
Unknown
Launch site
Taiyaun Space Center, China (TSC)
Object type
Payload
Rocket body
Debris
Shape & HBR
Unknown shape, 0.1 m
Radar Cross Section
Medium (>0.1 m² and <1 m²)

Expand to show TLE details & history
Last TLE update: 1 day ago

TLE from 1 day ago
0 FENGYUN 1C DEB
1 30175U 99025UG  26164.12756095  .00000295  00000-0  28031-3 0  9998
2 30175  99.3546 224.6131 0146723  87.9535 339.5909 13.84036615978631
Epoch: 2026-06-13T03:03Z
TLE epoch observation values (Epoch: 2026-06-13T03:03:41.266Z)
Latitude
65.3071°
Longitude
-103.6341°
Altitude
860.226 km
Speed
7.479 km/s
True Right ascension
13h 34m 56s
True Declination
65° 10' 41"
Sunlit
Object was in daylight at epoch
Visualization orbit readout
Latitude
Unknown
Longitude
Unknown
Altitude
Unknown
Speed
Unknown
Apparent Right ascension
Unknown
Apparent Declination
Unknown
Sunlit
N/A
Visualization observer readout
Local Sidereal Time
14:10:51
Azimuth
Unknown
Elevation
Unknown
Doppler factor
Unknown
Orbital elements
Apogee altitude
1,054.316 km
Perigee altitude
839.367 km
Semi-major axis
7,324.979 km
Eccentricity
0.01467
Inclination
99.3546°
RAAN
224.6131°
Arg. of periapsis
87.9535°
True anomaly
338.99435°
Mean anomaly
339.5909°
Eccentric anomaly
339.29366°
Mean motion
3.46205 °/min
Orbital period
103.98 mins
BSTAR
0.00028031
Loading maneuver chart data...
Computing Atmospheric mass density...

Documentation

Showing up to 5 results
|